SCP
0 0 0 0 0 0 0 0 0 0 0 0 0 0 -0 -0 0 0 0 0 0 0 0 0 0 0 0 0 0 0 0 0 0 0 0 0 0 0 0 0 0 0 0 0
0 0 0 0 0 0 0 0 0 0 0 0 0 0 0 0 0 0 0 0 0 0 0 0 0 0 0 0 0 0 0 0 0 0 0 0 0 0 0 0 0 0 0 0
0 0 0 0 0 0 0 0 0 0 0 0 0 0 0 0 0 0 0 0 0 0 0 0 0 0 0 0 0 0 0 0 0 0 0 0 0 0 0 0 0 0 0 0
0 0 0 0 0 0 0 0 0 0 0 0 0 0 0 0 0 0 0 0 0 0 0 0 0 0 0 0 0 0 0 0 0 0 0 0 0 0 0 0 0 0 0 0
0 0 0 0 0 0 0 0 0 0 0 0 0 0 0 0 0 0 0 0 0 0 0 0 0 0 0 0 0 0 0 0 0 0 0 0 0 0 0 0 0 0 0 0
0 0 0 0 0 0 0 0 0 0 0 0 0 0 0 0 0 0 0 0 0 0 0 0 0 0 0 0 0 0 0 0 0 0 0 0 0 0 0 0 0 0 0 0
0 0 0 0 0 0 0 0 0 0 0 0 0 0 0 0 0 0 0 0 0 0 0 0 0 0 0 0 0 0 0 0 0 0 0 0 0 0 0 0 0 0 0 0
0 0 0 0 0 0 0 0 0 0 0 0 0 0 0 0 0 0 0 0 0 0 0 0 0 0 0 0 0 0 0 0 0 0 0 0 0 0 0 0 0 0 0 0
0 0 0 0 0 0 0 0 0 0 0 0 0 0 0 0 0 0 0 0 0 0 0 0 0 0 0 0 0 0 0 0 0 0 0 0 0 0 0 0 0 0 0 0
0 0 0 0 0 0 0 0 0 0 0 0 0 0 0 0 0 0 0 0 0 0 0 0 0 0 0 0 0 0 0 0 0 0 0 0 0 0 0 0 0 0 0 0
0 0 0 0 0 0 0 0 0 0 0 0 0 0 0 0 0 0 0 0 0 0 0 0 0 0 0 0 0 0 0 0 0 0 0 0 0 0 0 0 0 0 0 0
0 0 0 0 0 0 0 0 0 0 0 0 0 0 0 0 0 0 0 0 0 0 0 0 0 0 0 0 0 0 0 0 0 0 0 0 0 0 0 0 0 0 0 0
0 0 0 0 0 0 0 0 0 0 0 0 0 0 0 0 0 0 0 0 0 0 0 0 0 0 0 0 0 0 0 0 0 0 0 0 0 0 0 0 0 0 0 0
0 0 0 0 0 0 0 0 0 0 0 0 0 0 0 0 0 0 0 0 0 0 0 0 0 0 0 0 0 0 0 0 0 0 0 0 0 0 0 0 0 0 0 0
0 0 0 0 0 0 0 0 0 0 0 0 0 0 0 0 0 0 0 0 0 0 0 0 0 0 0 0 0 0 0 0 0 0 0 0 0 0 0 0 0 0 0 0
0 0 0 0 0 0 0 0 0 0 0 0 0 0 0 0 0 0 0 0 0 0 0 0 0 0 0 0 0 0 0 0 0 0 0 0 0 0 0 0 0 0 0 0
0 0 0 0 0 0 0 0 0 0 0 0 0 0 0 0 0 0 0 0 0 0 0 0 0 0 0 0 0 0 0 0 0 0 0 0 0 0 0 0 0 0 0 0
0 0 0 0 0 0 0 0 0 0 0 0 0 0 0 0 0 0 0 0 0 0 0 0 0 0 0 0 0 0 0 0 0 0 0 0 0 0 0 0 0 0 0 0
0 0 0 0 0 0 0 0 0 0 0 0 0 0 0 0 0 0 0 0 0 0 0 0 0 0 0 0 0 0 0 0 0 0 0 0 0 0 0 0 0 0 0 0
0 0 0 0 0 0 0 0 0 0 0 0 0 0 0 0 0 0 0 0 0 0 0 0 0 0 0 0 0 0 0 0 0 0 0 0 0 0 0 0 0 0 0 0
0 0 0 0 0 0 0 0 0 0 0 0 0 0 0 0 0 0 0 0 0 0 0 0 0 0 0 0 0 0 0 0 0 0 0 0 0 0 0 0 0 0 0 0
0 0 0 0 0 0 0 0 0 0 0 0 0 0 0 0 0 0 0 0 0 0 0 0 0 0 0 0 0 0 0 0 0 0 0 0 0 0 0 0 0 0 0 0
0 0 0 0 0 0 0 0 0 0 0 0 0 0 0 0 0 0 0 0 0 0 0 0 0 0 0 0 0 0 0 0 0 0 0 0 0 0 0 0 0 0 0 0
0 0 0 0 0 0 0 0 0 0 0 0 0 0 0 0 0 0 0 0 0 0 0 0 0 0 0 0 0 0 0 0 0 0 0 0 0 0 0 0 0 0 0 0
0 0 0 0 0 0 0 0 0 0 0 0 0 0 0 0 0 0 0 0 0 0 0 0 0 0 0 0 0 0 0 0 0 0 0 0 0 0 0 0 0 0 0 0
0 0 0 0 0 0 0 0 0 0 0 0 0 0 0 0 0 0 0 0 0 0 0 0 0 0 0 0 0 0 0 0 0 0 0 0 0 0 0 0 0 0 0 0
Wind_Speed_500mb
4 9 9 5 2 4 0 8 9 4 0 1 7 15 26 33 43 33 32 34 42 36 23 26 24 22 22 21 16 15 16 16 13 8 2 4 7 9 11 14 16 17 18 19
10 7 2 2 5 7 6 4 4 4 2 3 8 22 17 10 21 44 41 35 35 39 37 37 32 24 23 24 22 21 20 18 13 9 3 3 4 8 12 15 16 19 20 22
11 3 4 3 9 9 7 8 5 4 3 4 8 14 8 7 5 17 37 31 27 38 44 44 39 27 24 28 27 24 20 17 14 12 11 7 4 5 11 12 14 18 21 23
11 2 3 7 8 3 7 1 5 6 6 5 4 6 9 3 6 10 16 27 23 24 47 44 41 33 24 26 29 28 24 20 18 17 14 9 5 4 7 10 13 16 20 23
4 4 6 6 4 4 6 2 5 3 4 6 4 7 12 7 6 4 8 8 15 23 33 48 45 36 25 25 33 31 28 26 23 20 17 12 7 5 5 8 10 13 17 21
6 4 6 4 3 4 7 7 6 7 5 5 6 8 10 10 12 9 12 9 6 9 22 40 40 36 31 26 34 35 34 32 28 25 21 15 12 9 6 6 8 12 14 17
3 5 3 5 8 9 3 8 5 8 6 9 2 4 16 7 8 10 8 8 6 9 16 30 42 43 38 32 33 37 39 37 33 29 25 21 16 12 8 5 5 8 11 14
12 6 7 2 3 10 8 10 9 13 6 5 7 11 11 8 10 9 10 11 10 13 16 24 32 37 37 34 31 37 43 41 39 35 31 26 21 15 10 6 3 5 8 12
9 4 0 6 4 4 8 6 7 13 5 7 7 11 12 6 9 10 15 13 10 12 15 20 30 34 37 37 35 37 43 45 43 41 37 33 27 21 14 9 4 3 6 11
12 10 4 2 1 1 5 4 6 5 5 7 8 9 10 14 17 14 16 18 14 14 15 16 21 27 32 35 33 36 43 46 44 42 41 38 32 28 22 15 9 7 8 12
7 8 1 5 10 14 2 2 3 5 8 10 3 12 13 21 21 23 29 24 21 19 10 3 17 29 37 39 40 39 44 46 48 46 45 43 41 35 30 22 18 14 12 14
9 10 8 11 1 2 4 11 10 9 11 4 6 13 7 12 26 46 38 30 25 14 7 14 11 22 38 46 47 43 41 44 46 45 46 45 43 39 35 27 23 21 17 17
12 2 6 9 7 6 8 11 7 8 5 11 12 11 3 14 22 40 41 33 23 14 10 11 14 14 26 40 50 48 44 42 42 46 48 48 47 45 39 32 29 28 25 22
6 6 12 17 11 11 10 10 15 12 7 9 16 7 10 15 17 29 36 27 23 12 13 15 15 13 18 31 39 48 46 43 41 45 48 49 48 43 39 36 35 35 32 29
7 11 6 4 6 8 11 10 24 21 16 15 13 35 19 18 19 34 35 27 20 15 15 13 14 11 12 21 30 38 42 43 42 43 46 47 43 41 40 39 38 40 38 35
5 4 5 5 5 3 8 10 17 31 24 28 26 37 14 15 25 24 32 28 22 18 12 11 10 8 8 13 23 30 37 40 41 42 42 42 43 42 41 40 41 42 42 40
12 12 6 9 3 4 18 23 34 17 12 24 27 30 10 8 19 31 25 16 12 10 10 7 8 10 10 12 17 21 28 33 36 37 41 44 45 43 42 43 44 45 45 45
12 11 5 6 5 5 11 3 16 36 12 34 15 10 15 21 27 24 15 18 19 18 16 14 12 9 9 12 18 24 29 33 39 41 41 42 43 44 46 47 47 47 47 48
5 9 4 10 9 15 7 12 18 19 23 42 42 43 25 40 30 10 16 20 22 23 22 20 15 11 9 9 11 17 26 31 36 37 38 39 40 41 42 42 43 44 46 47
5 8 6 7 12 21 10 6 19 13 24 12 48 37 32 46 11 9 33 29 30 25 21 18 16 12 11 10 12 15 20 24 27 27 28 29 31 32 34 35 38 41 45 49
7 2 15 7 9 18 11 17 25 13 12 2 18 31 50 18 16 47 45 37 30 26 20 17 14 12 10 10 11 13 15 17 18 18 21 23 25 28 32 35 39 43 47 52
18 19 9 5 3 26 23 14 19 8 12 14 18 31 46 41 49 53 44 38 29 22 18 16 14 11 10 9 10 11 12 13 14 17 22 25 29 33 37 40 43 46 51 55
8 15 15 21 14 4 53 3 20 17 26 23 28 34 51 55 52 45 40 31 26 20 15 13 12 10 9 9 11 11 12 14 17 21 26 30 34 37 41 43 46 47 49 52
8 10 7 7 7 6 41 21 20 17 25 30 31 39 44 51 44 38 32 26 21 17 14 12 10 9 9 9 11 14 17 21 24 27 29 32 35 36 37 39 41 42 41 43
7 23 12 5 1 9 23 31 29 30 32 37 36 36 35 35 33 30 28 23 20 16 14 10 7 6 9 11 15 19 22 24 27 29 31 33 34 36 36 36 37 40 39 40
12 13 11 9 22 10 9 42 38 37 40 38 37 39 31 26 28 27 25 22 18 13 9 6 5 8 12 15 18 21 24 26 28 29 31 34 36 38 41 45 46 40 45 46
Wind_Direction_500mb
100 89 184 170 118 123 143 128 129 108 349 334 247 270 271 263 222 220 223 218 218 230 250 248 248 251 246 241 227 210 199 193 193 195 157 55 53 55 48 50 51 51 51 50
45 152 284 19 47 86 71 114 90 82 137 63 334 296 283 202 213 218 220 220 223 217 221 230 234 244 249 235 224 217 207 208 209 216 172 112 79 66 59 57 54 53 50 49
137 152 327 89 56 101 54 131 117 147 357 277 329 317 334 13 114 224 229 229 224 221 223 225 228 239 253 238 224 221 215 213 203 197 191 176 127 74 67 64 59 57 52 48
84 305 104 98 91 39 154 134 114 90 75 193 115 252 305 187 66 67 179 206 219 228 225 231 232 239 255 245 225 221 219 215 208 202 205 218 185 110 83 73 64 58 52 48
154 64 75 96 103 3 140 80 97 86 98 74 307 97 266 146 96 126 177 196 231 230 238 230 235 243 250 248 229 225 220 216 212 210 215 211 183 154 123 96 82 69 54 46
98 63 60 112 95 36 133 89 51 53 83 39 233 141 272 197 182 172 143 124 149 217 235 232 235 230 234 244 228 223 220 219 215 213 213 208 196 185 156 121 83 64 54 42
42 16 34 99 92 4 80 91 20 359 10 217 291 73 238 211 212 183 185 188 200 213 209 219 218 220 227 236 233 223 221 219 217 216 217 214 209 200 186 139 88 62 45 33
152 247 172 340 73 169 176 151 156 193 189 210 5 228 259 216 162 141 133 126 133 172 192 221 229 230 236 241 243 234 224 218 218 217 218 218 215 213 205 179 129 49 31 20
130 74 11 58 16 72 195 187 142 103 46 57 218 276 317 183 175 124 130 140 139 153 176 207 222 236 243 243 249 244 234 224 219 218 218 221 220 221 219 217 232 339 3 8
188 87 15 339 21 337 148 228 95 359 127 253 276 267 225 213 204 168 164 165 149 145 167 185 219 237 247 251 252 249 238 235 230 222 223 224 224 224 226 229 247 279 323 343
137 99 238 45 208 171 132 185 39 124 148 169 198 258 215 205 179 177 176 169 158 146 132 240 241 243 250 254 251 250 246 238 232 227 226 226 225 226 230 233 246 265 294 321
205 116 143 212 179 345 194 204 170 135 226 214 153 271 278 194 176 170 173 173 172 182 281 308 279 242 240 246 250 252 253 247 240 237 232 231 230 231 235 239 249 263 278 298
193 270 74 354 350 352 212 195 191 129 96 202 145 254 161 131 146 179 180 186 192 205 273 283 284 268 242 240 244 250 254 252 247 238 233 232 234 235 239 243 250 259 268 282
144 111 161 188 190 130 188 209 179 137 132 181 220 230 210 209 195 194 193 195 190 218 251 261 262 274 250 235 238 246 246 253 253 244 240 237 236 241 246 249 252 259 265 276
127 189 136 264 157 125 180 173 188 197 192 183 204 224 217 210 196 202 197 188 195 213 233 246 260 272 257 238 230 238 244 246 248 247 242 242 243 244 246 250 256 260 263 270
0 208 104 329 227 195 264 218 203 220 231 259 263 267 214 221 182 165 172 176 182 184 219 233 239 237 242 230 224 228 236 238 241 249 249 246 243 246 252 255 257 259 260 266
142 137 117 253 61 118 293 200 194 197 199 205 220 240 140 145 182 175 172 186 191 188 201 209 188 177 178 184 202 216 233 234 235 239 243 241 243 246 249 252 254 254 255 261
139 117 96 160 28 245 248 213 197 208 221 219 262 238 193 180 155 159 170 177 167 167 173 168 171 166 162 171 186 197 213 219 226 228 231 234 239 242 245 248 250 250 254 262
70 131 130 152 201 307 228 190 159 173 250 215 220 231 152 142 138 135 162 170 166 170 166 164 163 161 166 184 192 206 212 218 226 231 235 237 239 243 247 250 251 256 261 266
63 61 126 138 179 213 242 180 149 118 273 229 206 217 168 157 189 200 166 167 162 167 166 167 168 176 180 181 192 207 208 212 219 225 233 239 244 248 254 257 262 267 273 278
127 57 199 183 224 282 219 163 150 130 251 109 196 197 168 185 218 158 167 158 165 171 176 177 182 194 191 197 202 205 202 212 222 232 246 254 260 266 272 276 279 281 283 285
158 156 181 106 153 262 152 116 170 175 105 130 148 171 167 151 143 150 156 155 165 173 167 173 181 183 181 188 202 214 221 236 249 261 271 276 281 284 285 286 288 290 292 293
202 183 177 188 208 197 173 130 179 152 148 137 138 151 161 150 150 155 155 161 169 178 183 186 192 194 201 218 233 242 252 263 270 277 282 287 290 293 295 296 297 298 298 299
258 180 167 115 278 211 179 146 164 168 162 150 145 148 158 152 154 154 156 160 173 181 190 195 204 226 244 261 279 290 295 297 298 298 298 297 297 298 299 302 305 306 307 305
190 147 158 271 170 116 195 212 179 164 160 159 151 152 155 159 159 168 166 172 178 181 183 192 212 252 283 300 309 311 310 310 310 310 311 311 311 311 311 311 312 310 310 309
192 166 173 211 186 154 167 197 187 177 169 168 168 158 162 178 178 182 175 172 171 176 179 204 251 286 302 311 316 319 320 321 321 320 319 318 317 317 316 313 309 308 309 307
Wind_Speed_850mb
4 9 9 5 2 4 0 8 9 4 0 1 7 15 26 33 43 33 32 34 42 36 23 26 24 22 22 21 16 15 16 16 13 8 2 4 7 9 11 14 16 17 18 19
10 7 2 2 5 7 6 4 4 4 2 3 8 22 17 10 21 44 41 35 35 39 37 37 32 24 23 24 22 21 20 18 13 9 3 3 4 8 12 15 16 19 20 22
11 3 4 3 9 9 7 8 5 4 3 4 8 14 8 7 5 17 37 31 27 38 44 44 39 27 24 28 27 24 20 17 14 12 11 7 4 5 11 12 14 18 21 23
11 2 3 7 8 3 7 1 5 6 6 5 4 6 9 3 6 10 16 27 23 24 47 44 41 33 24 26 29 28 24 20 18 17 14 9 5 4 7 10 13 16 20 23
4 4 6 6 4 4 6 2 5 3 4 6 4 7 12 7 6 4 8 8 15 23 33 48 45 36 25 25 33 31 28 26 23 20 17 12 7 5 5 8 10 13 17 21
6 4 6 4 3 4 7 7 6 7 5 5 6 8 10 10 12 9 12 9 6 9 22 40 40 36 31 26 34 35 34 32 28 25 21 15 12 9 6 6 8 12 14 17
3 5 3 5 8 9 3 8 5 8 6 9 2 4 16 7 8 10 8 8 6 9 16 30 42 43 38 32 33 37 39 37 33 29 25 21 16 12 8 5 5 8 11 14
12 6 7 2 3 10 8 10 9 13 6 5 7 11 11 8 10 9 10 11 10 13 16 24 32 37 37 34 31 37 43 41 39 35 31 26 21 15 10 6 3 5 8 12
9 4 0 6 4 4 8 6 7 13 5 7 7 11 12 6 9 10 15 13 10 12 15 20 30 34 37 37 35 37 43 45 43 41 37 33 27 21 14 9 4 3 6 11
12 10 4 2 1 1 5 4 6 5 5 7 8 9 10 14 17 14 16 18 14 14 15 16 21 27 32 35 33 36 43 46 44 42 41 38 32 28 22 15 9 7 8 12
7 8 1 5 10 14 2 2 3 5 8 10 3 12 13 21 21 23 29 24 21 19 10 3 17 29 37 39 40 39 44 46 48 46 45 43 41 35 30 22 18 14 12 14
9 10 8 11 1 2 4 11 10 9 11 4 6 13 7 12 26 46 38 30 25 14 7 14 11 22 38 46 47 43 41 44 46 45 46 45 43 39 35 27 23 21 17 17
12 2 6 9 7 6 8 11 7 8 5 11 12 11 3 14 22 40 41 33 23 14 10 11 14 14 26 40 50 48 44 42 42 46 48 48 47 45 39 32 29 28 25 22
6 6 12 17 11 11 10 10 15 12 7 9 16 7 10 15 17 29 36 27 23 12 13 15 15 13 18 31 39 48 46 43 41 45 48 49 48 43 39 36 35 35 32 29
7 11 6 4 6 8 11 10 24 21 16 15 13 35 19 18 19 34 35 27 20 15 15 13 14 11 12 21 30 38 42 43 42 43 46 47 43 41 40 39 38 40 38 35
5 4 5 5 5 3 8 10 17 31 24 28 26 37 14 15 25 24 32 28 22 18 12 11 10 8 8 13 23 30 37 40 41 42 42 42 43 42 41 40 41 42 42 40
12 12 6 9 3 4 18 23 34 17 12 24 27 30 10 8 19 31 25 16 12 10 10 7 8 10 10 12 17 21 28 33 36 37 41 44 45 43 42 43 44 45 45 45
12 11 5 6 5 5 11 3 16 36 12 34 15 10 15 21 27 24 15 18 19 18 16 14 12 9 9 12 18 24 29 33 39 41 41 42 43 44 46 47 47 47 47 48
5 9 4 10 9 15 7 12 18 19 23 42 42 43 25 40 30 10 16 20 22 23 22 20 15 11 9 9 11 17 26 31 36 37 38 39 40 41 42 42 43 44 46 47
5 8 6 7 12 21 10 6 19 13 24 12 48 37 32 46 11 9 33 29 30 25 21 18 16 12 11 10 12 15 20 24 27 27 28 29 31 32 34 35 38 41 45 49
7 2 15 7 9 18 11 17 25 13 12 2 18 31 50 18 16 47 45 37 30 26 20 17 14 12 10 10 11 13 15 17 18 18 21 23 25 28 32 35 39 43 47 52
18 19 9 5 3 26 23 14 19 8 12 14 18 31 46 41 49 53 44 38 29 22 18 16 14 11 10 9 10 11 12 13 14 17 22 25 29 33 37 40 43 46 51 55
8 15 15 21 14 4 53 3 20 17 26 23 28 34 51 55 52 45 40 31 26 20 15 13 12 10 9 9 11 11 12 14 17 21 26 30 34 37 41 43 46 47 49 52
8 10 7 7 7 6 41 21 20 17 25 30 31 39 44 51 44 38 32 26 21 17 14 12 10 9 9 9 11 14 17 21 24 27 29 32 35 36 37 39 41 42 41 43
7 23 12 5 1 9 23 31 29 30 32 37 36 36 35 35 33 30 28 23 20 16 14 10 7 6 9 11 15 19 22 24 27 29 31 33 34 36 36 36 37 40 39 40
12 13 11 9 22 10 9 42 38 37 40 38 37 39 31 26 28 27 25 22 18 13 9 6 5 8 12 15 18 21 24 26 28 29 31 34 36 38 41 45 46 40 45 46
Wind_Direction_850mb
100 89 184 170 118 123 143 128 129 108 349 334 247 270 271 263 222 220 223 218 218 230 250 248 248 251 246 241 227 210 199 193 193 195 157 55 53 55 48 50 51 51 51 50
45 152 284 19 47 86 71 114 90 82 137 63 334 296 283 202 213 218 220 220 223 217 221 230 234 244 249 235 224 217 207 208 209 216 172 112 79 66 59 57 54 53 50 49
137 152 327 89 56 101 54 131 117 147 357 277 329 317 334 13 114 224 229 229 224 221 223 225 228 239 253 238 224 221 215 213 203 197 191 176 127 74 67 64 59 57 52 48
84 305 104 98 91 39 154 134 114 90 75 193 115 252 305 187 66 67 179 206 219 228 225 231 232 239 255 245 225 221 219 215 208 202 205 218 185 110 83 73 64 58 52 48
154 64 75 96 103 3 140 80 97 86 98 74 307 97 266 146 96 126 177 196 231 230 238 230 235 243 250 248 229 225 220 216 212 210 215 211 183 154 123 96 82 69 54 46
98 63 60 112 95 36 133 89 51 53 83 39 233 141 272 197 182 172 143 124 149 217 235 232 235 230 234 244 228 223 220 219 215 213 213 208 196 185 156 121 83 64 54 42
42 16 34 99 92 4 80 91 20 359 10 217 291 73 238 211 212 183 185 188 200 213 209 219 218 220 227 236 233 223 221 219 217 216 217 214 209 200 186 139 88 62 45 33
152 247 172 340 73 169 176 151 156 193 189 210 5 228 259 216 162 141 133 126 133 172 192 221 229 230 236 241 243 234 224 218 218 217 218 218 215 213 205 179 129 49 31 20
130 74 11 58 16 72 195 187 142 103 46 57 218 276 317 183 175 124 130 140 139 153 176 207 222 236 243 243 249 244 234 224 219 218 218 221 220 221 219 217 232 339 3 8
188 87 15 339 21 337 148 228 95 359 127 253 276 267 225 213 204 168 164 165 149 145 167 185 219 237 247 251 252 249 238 235 230 222 223 224 224 224 226 229 247 279 323 343
137 99 238 45 208 171 132 185 39 124 148 169 198 258 215 205 179 177 176 169 158 146 132 240 241 243 250 254 251 250 246 238 232 227 226 226 225 226 230 233 246 265 294 321
205 116 143 212 179 345 194 204 170 135 226 214 153 271 278 194 176 170 173 173 172 182 281 308 279 242 240 246 250 252 253 247 240 237 232 231 230 231 235 239 249 263 278 298
193 270 74 354 350 352 212 195 191 129 96 202 145 254 161 131 146 179 180 186 192 205 273 283 284 268 242 240 244 250 254 252 247 238 233 232 234 235 239 243 250 259 268 282
144 111 161 188 190 130 188 209 179 137 132 181 220 230 210 209 195 194 193 195 190 218 251 261 262 274 250 235 238 246 246 253 253 244 240 237 236 241 246 249 252 259 265 276
127 189 136 264 157 125 180 173 188 197 192 183 204 224 217 210 196 202 197 188 195 213 233 246 260 272 257 238 230 238 244 246 248 247 242 242 243 244 246 250 256 260 263 270
0 208 104 329 227 195 264 218 203 220 231 259 263 267 214 221 182 165 172 176 182 184 219 233 239 237 242 230 224 228 236 238 241 249 249 246 243 246 252 255 257 259 260 266
142 137 117 253 61 118 293 200 194 197 199 205 220 240 140 145 182 175 172 186 191 188 201 209 188 177 178 184 202 216 233 234 235 239 243 241 243 246 249 252 254 254 255 261
139 117 96 160 28 245 248 213 197 208 221 219 262 238 193 180 155 159 170 177 167 167 173 168 171 166 162 171 186 197 213 219 226 228 231 234 239 242 245 248 250 250 254 262
70 131 130 152 201 307 228 190 159 173 250 215 220 231 152 142 138 135 162 170 166 170 166 164 163 161 166 184 192 206 212 218 226 231 235 237 239 243 247 250 251 256 261 266
63 61 126 138 179 213 242 180 149 118 273 229 206 217 168 157 189 200 166 167 162 167 166 167 168 176 180 181 192 207 208 212 219 225 233 239 244 248 254 257 262 267 273 278
127 57 199 183 224 282 219 163 150 130 251 109 196 197 168 185 218 158 167 158 165 171 176 177 182 194 191 197 202 205 202 212 222 232 246 254 260 266 272 276 279 281 283 285
158 156 181 106 153 262 152 116 170 175 105 130 148 171 167 151 143 150 156 155 165 173 167 173 181 183 181 188 202 214 221 236 249 261 271 276 281 284 285 286 288 290 292 293
202 183 177 188 208 197 173 130 179 152 148 137 138 151 161 150 150 155 155 161 169 178 183 186 192 194 201 218 233 242 252 263 270 277 282 287 290 293 295 296 297 298 298 299
258 180 167 115 278 211 179 146 164 168 162 150 145 148 158 152 154 154 156 160 173 181 190 195 204 226 244 261 279 290 295 297 298 298 298 297 297 298 299 302 305 306 307 305
190 147 158 271 170 116 195 212 179 164 160 159 151 152 155 159 159 168 166 172 178 181 183 192 212 252 283 300 309 311 310 310 310 310 311 311 311 311 311 311 312 310 310 309
192 166 173 211 186 154 167 197 187 177 169 168 168 158 162 178 178 182 175 172 171 176 179 204 251 286 302 311 316 319 320 321 321 320 319 318 317 317 316 313 309 308 309 307